Location: Maiden
(35.5760°N, 81.2120°W)
Time: 03:49:23

ISS - Visible Passes

Search period start: 04 October 2015 00:00
Search period end: 14 October 2015 00:00
Orbit: 400 x 409 km, 51.6° (Epoch: 03 October)

Date Brightness Start Highest point End Pass type
(mag) Time Alt. Az. Time Alt. Az. Time Alt. Az.
04 Oct -1.0 20:58:19 10° W 21:00:47 19° NNW 21:01:09 19° NNW visible
05 Oct -1.8 20:05:18 10° WSW 20:08:17 33° NW 20:11:15 10° NNE visible
06 Oct -0.3 20:51:50 10° NW 20:52:52 11° NNW 20:53:48 10° N visible
07 Oct -0.7 19:57:54 10° WNW 20:00:07 17° NNW 20:02:17 10° NNE visible
